Location: Audinghen
(50.8518°N, 1.6129°E)
Time: 10:39:32
(UTC+00:00)

SL-16 R/B - Pass Details

Date: 07 August 2020
Orbit: 985 x 1007 km, 99.5° (Epoch: 20 September)

Event Time Altitude Azimuth Distance (km) Brightness Sun altitude
Exits shadow 00:28:36 16° 126° (SE) 2,359 4.2 -22.5°
Maximum altitude 00:33:14 44° 62° (ENE) 1,373 3.5 -22.4°
Drops below altitude 10° 00:39:06 10° 353° (N) 2,791 5.9 -22.2°
Sets 00:41:42 0° 348° (NNW) 3,742 6.7 -22.2°
